Погода в Пустыне

Россия / Архангельская область     64°30′29″N   48°29′30″E
темп.,
°C
ветер,
м/с
пор.,
м/с
влажн.,
%
обл.,
%
осадки,
мм/ч
давл.,
гПа
погр.,
м
11 апреля, вс
вс1100:00+3ю61484100 0.0 1017768
03:00+2ю51486100 0.0 1016747
06:00+2ююз6148584 0.0 1014913
09:00+2юз71595100 0.2 10141150
12:00+4зюз712685 0.3 10161451
15:00+5зюз714665 0.4 10171673
18:00+4юз71564100 0.4 10181331
21:00+2зюз613715 0.7 10201032
12 апреля, пн
пн1200:00+1зюз6147337 0.0 10231062
03:00+1зюз6147799 0.0 10261129
06:00+1зюз61377100 0.0 10281261
09:00+3зюз6107165 0.0 10301146
12:00+6зюз6105868 0.0 10311456
15:00+7зюз51152100 0.0 10311486
18:00+6юз3956100 0.0 1030501
21:00+4ююз41171100 0.0 1028876
13 апреля, вт
вт1300:00+5юз51575100 0.0 1026699
03:00+5юз51491100 0.0 1026565
06:00+6юз51490100 0.0 1025592
09:00+9юз4117978 0.0 1023628
12:00+11ююз61170100 0.0 10211041
15:00+7ююз4987100 0.6 1020755
18:00+6юз41091100 0.3 1018669
21:00+6юз3894100 0.6 1018485
14 апреля, ср
ср1400:00+6зюз3791100 0.0 1018378
03:00+5юз28925 0.0 1017201
06:00+5ююз3119251 0.0 1016360
09:00+7ююз41385100 0.0 1014614
12:00+12юз61464100 0.0 10111524
15:00+9з71582100 0.6 10101836
18:00+6зсз714585 0.6 10121846
21:00+2з6126240 0.6 10161242
15 апреля, чт
чт1500:000сз5107321 0.1 1019936
03:00−2сз377914 0.1 1021713
06:00−1с23705 0.0 1023592
09:00+1юв114959 0.0 1023741
12:00+3ю2239100 0.0 10211144
15:00+4ююз2337100 0.0 10201756
18:00+4зсз244693 0.0 1019860
21:00+2з1258100 0.0 101861